Theta_e
293 292 292 291 291 291 290 290 290 290 290 289 289 288 288 288 288 287 287 289 289 290 291 291 290 291 291 292 293 293 292 292 287 289 292 292 290 291 292 294 294 295 293
292 292 291 292 291 291 290 290 290 289 289 288 288 287 287 287 287 287 288 287 289 289 289 289 289 291 290 291 291 291 291 291 289 286 288 289 289 291 292 292 292 293 293
292 291 291 291 291 291 290 289 289 288 288 288 287 286 286 286 286 287 288 288 289 289 289 289 289 289 289 290 290 290 290 290 290 288 286 288 289 291 289 290 290 291 293
292 292 291 291 291 291 290 289 289 288 288 287 287 286 286 286 286 286 287 288 288 289 289 290 290 289 289 289 289 289 289 288 289 287 286 286 287 288 287 286 285 287 288
291 291 291 292 291 290 289 289 289 288 287 287 286 286 285 286 287 286 288 288 288 288 289 289 289 289 287 289 289 288 289 288 287 286 285 285 285 285 285 286 285 287 288
291 291 292 291 290 289 288 288 288 287 287 286 285 285 284 286 289 291 289 288 287 287 286 288 288 287 289 290 290 291 291 289 287 286 285 285 285 286 287 286 286 285 284
290 291 291 290 289 288 288 287 286 286 285 284 284 284 283 284 288 289 288 287 287 287 287 286 286 287 287 288 289 290 290 291 291 289 286 286 286 286 284 283 284 285 285
289 290 289 288 287 286 286 285 285 285 284 284 283 283 283 285 287 288 288 287 287 287 286 286 286 286 287 286 288 287 287 288 288 288 288 287 286 283 283 282 281 281 283
287 287 287 287 285 285 283 283 283 283 283 283 283 284 282 283 287 287 287 286 285 285 285 286 286 285 286 288 287 286 286 286 290 290 287 285 283 282 281 279 279 279 283
287 287 287 286 285 284 283 283 284 283 283 284 284 284 285 284 286 287 287 285 284 283 284 285 285 285 287 288 286 285 285 286 285 284 282 281 280 279 278 277 276 276 284
287 286 285 285 284 283 282 284 284 283 284 283 281 281 283 283 283 287 287 285 284 284 284 284 284 286 287 288 288 284 285 285 282 280 279 279 278 277 276 275 274 274 277
286 284 283 282 281 282 282 283 284 283 282 279 276 276 279 282 284 287 288 287 287 284 284 284 284 287 287 287 285 286 285 283 281 279 277 277 276 275 275 275 274 273 273
284 283 281 280 281 282 281 281 282 282 280 276 278 277 277 279 280 287 288 287 287 284 285 285 286 285 286 285 284 283 281 281 280 278 277 277 277 277 277 275 274 274 272
283 281 279 280 279 281 281 281 279 278 277 277 276 277 275 275 277 277 279 279 284 284 285 284 284 285 285 284 281 280 280 279 278 278 277 277 276 275 273 273 271 272 270
282 281 281 281 280 279 279 280 280 278 280 275 273 274 271 272 275 281 281 284 284 284 284 283 281 278 280 279 279 279 279 279 278 278 273 269 267 269 270 269 269 269 267
281 281 281 281 279 280 280 277 284 284 285 286 287 281 277 284 287 287 287 287 287 286 283 280 279 279 279 277 277 277 278 278 277 275 274 270 264 265 266 269 269 268 267
282 282 281 280 280 279 277 276 275 277 286 288 288 288 288 287 287 287 287 287 287 285 280 280 279 279 279 277 272 277 276 276 275 268 266 264 264 263 264 265 267 266 262
280 279 281 281 281 279 278 276 275 273 272 273 281 286 287 288 288 288 288 287 283 281 279 279 279 278 279 274 271 275 276 275 267 268 266 262 261 261 261 262 261 260 258
278 278 279 279 278 275 273 270 271 268 268 268 267 276 276 285 287 287 287 276 282 280 279 279 280 279 277 269 271 277 276 269 265 265 265 261 259 260 258 258 259 259 257
275 277 277 278 276 276 273 272 268 267 266 265 266 269 273 269 268 266 266 268 279 280 279 272 271 267 268 270 269 273 271 264 263 260 258 260 257 259 259 257 255 257 253
274 275 275 273 274 275 272 272 270 265 266 265 269 268 279 277 273 270 271 266 272 274 271 270 269 268 268 271 271 271 269 265 263 260 260 259 259 258 256 256 256 253 256
272 274 276 276 275 273 271 269 268 269 268 267 269 269 281 271 268 272 274 273 272 273 272 271 270 270 272 274 275 273 272 269 265 261 259 258 258 257 255 256 256 252 251
272 272 271 273 272 269 266 265 266 267 270 272 276 278 279 277 274 274 276 274 270 271 269 270 270 268 270 275 277 275 273 271 268 264 261 259 258 257 258 258 256 253 250
268 266 264 265 265 263 263 265 269 276 277 277 275 271 278 280 280 281 281 274 269 269 267 269 271 271 272 275 277 276 275 271 269 265 263 261 258 256 255 255 255 251 255
263 265 263 263 264 265 265 266 272 276 275 269 268 268 269 271 276 279 282 280 276 268 267 268 268 270 273 274 275 273 272 271 268 265 263 260 259 257 257 258 256 254 252
257 259 259 260 264 268 270 272 272 271 268 266 267 268 269 273 278 280 280 280 277 274 267 268 269 270 272 273 273 272 271 269 265 264 262 261 259 257 257 255 255 257 255
Wind_Speed
9 7 8 7 7 7 6 6 6 5 5 5 4 3 3 1 1 1 3 3 3 4 4 5 7 8 7 7 7 7 8 7 12 8 6 7 9 10 11 11 9 9 9
8 8 8 7 7 6 6 6 6 6 5 5 4 3 2 2 1 1 2 3 3 4 6 6 8 6 9 9 7 9 8 9 9 14 10 5 9 12 8 10 10 8 9
8 8 7 7 7 7 6 6 6 6 5 4 4 3 2 1 1 0 1 2 2 4 6 7 9 9 9 8 9 8 7 7 8 8 8 6 7 5 9 7 8 8 6
9 8 8 7 6 6 6 6 6 5 5 4 3 2 1 1 1 1 1 2 4 5 6 7 8 9 11 10 9 8 8 7 6 7 7 8 7 5 5 7 7 3 7
9 8 8 7 6 7 6 5 5 5 4 3 2 2 2 2 1 2 1 3 5 7 7 7 7 8 12 13 8 8 7 6 6 6 8 7 8 6 6 4 6 7 8
10 9 8 8 7 6 6 6 5 5 5 4 3 3 3 2 6 5 5 3 5 7 7 6 8 8 9 15 16 15 13 8 8 6 7 8 10 8 6 6 6 6 4
10 9 9 9 8 7 6 6 6 5 4 3 3 2 2 2 6 6 6 3 5 5 6 6 7 6 8 9 13 16 14 15 14 8 10 10 9 5 5 8 8 7 7
10 10 9 9 8 7 7 6 5 4 4 3 1 0 1 1 3 5 6 4 4 6 6 6 7 8 8 10 12 7 7 7 7 5 8 7 5 5 6 7 9 8 8
10 11 10 10 10 8 7 6 4 4 4 3 1 2 3 4 5 5 4 4 4 6 5 5 5 8 12 17 10 8 7 7 6 2 5 6 9 10 9 6 4 4 3
13 12 11 11 10 10 8 7 3 3 4 3 3 3 4 5 7 4 5 2 4 4 5 4 6 7 16 17 8 8 8 6 1 1 2 3 5 6 10 6 5 4 3
10 9 9 9 11 9 8 5 5 4 3 3 3 3 5 5 6 8 5 3 3 4 4 5 3 10 15 15 12 5 6 5 3 2 1 2 2 3 4 5 6 5 3
12 11 10 9 6 7 9 7 6 5 4 3 3 4 4 4 7 9 8 7 7 3 6 4 5 12 15 13 9 11 10 3 1 1 1 2 2 2 3 4 6 7 7
12 11 10 8 8 8 8 8 5 5 4 3 3 3 3 3 3 9 8 5 8 6 5 7 13 15 12 7 8 8 6 2 1 1 1 1 1 2 1 1 5 6 11
13 11 10 11 9 7 5 5 5 5 4 4 3 4 4 3 3 3 2 2 7 7 8 6 7 11 8 3 2 3 2 2 0 0 1 1 2 2 2 2 2 4 7
12 11 10 8 9 7 5 6 6 4 5 5 4 4 3 3 4 5 4 3 5 8 8 2 3 3 2 1 1 2 2 2 1 1 2 2 2 2 2 2 3 5 6
12 9 8 8 6 5 5 3 8 10 10 13 11 7 4 10 8 9 10 11 11 11 6 2 6 5 2 2 2 2 1 2 1 2 2 3 2 2 1 4 5 6 7
11 9 7 6 6 7 4 5 4 3 4 9 10 10 11 10 9 10 10 11 11 8 5 4 4 5 2 2 2 2 1 0 1 2 3 3 3 2 2 3 5 6 4
6 7 6 5 6 5 5 5 4 4 3 2 4 5 7 9 10 9 10 8 3 4 6 4 5 5 3 3 3 2 2 2 1 2 3 3 3 2 3 3 3 4 3
5 4 4 4 4 4 4 3 3 3 3 3 2 3 4 6 7 7 8 3 4 6 6 6 5 4 3 3 3 3 3 3 2 2 3 4 3 3 3 3 4 5 4
3 5 4 3 3 4 3 3 3 3 3 3 3 3 2 2 1 2 2 2 4 6 7 5 4 3 4 4 3 3 3 2 2 2 2 4 3 3 4 4 3 4 3
2 2 4 2 3 3 4 4 4 3 3 3 4 4 8 4 4 4 4 3 5 5 5 5 4 4 3 3 3 4 3 3 3 3 4 4 4 4 4 4 5 3 5
1 1 2 3 3 2 3 3 3 3 3 2 4 3 10 2 2 4 5 5 5 6 5 5 4 4 5 5 5 5 5 5 4 3 5 4 5 5 4 4 5 3 3
2 2 2 1 2 2 2 2 3 3 3 2 3 5 5 5 5 5 6 5 4 4 4 4 4 3 3 4 5 6 7 7 7 6 7 6 5 6 5 6 7 4 3
2 2 1 2 2 1 2 2 3 5 5 4 4 3 4 6 7 10 8 5 4 4 4 4 5 6 5 5 5 5 5 5 6 8 9 8 7 6 5 5 5 4 6
4 4 2 2 3 3 3 4 4 4 2 2 3 4 3 3 6 7 9 6 5 4 5 5 4 6 8 9 8 8 7 10 9 10 7 7 9 9 7 6 6 5 4
2 3 3 2 3 4 3 4 5 4 3 3 4 4 3 5 7 8 8 7 4 5 5 5 6 9 9 8 9 9 11 13 11 12 9 9 9 7 7 7 9 7 7
Wind_Direction
146 140 137 139 132 126 126 129 130 115 113 114 123 127 129 136 104 62 349 322 334 318 306 298 293 292 289 285 275 272 271 275 284 298 287 305 299 294 291 295 290 287 285
145 141 141 135 133 130 133 130 119 129 138 145 143 139 143 127 100 36 24 322 320 313 302 293 286 287 286 286 283 281 278 280 286 295 297 290 302 297 288 289 295 295 295
144 143 140 139 142 144 133 131 141 148 148 137 127 119 97 72 95 93 263 293 309 301 293 289 294 297 292 288 282 280 280 285 281 285 301 298 285 278 288 281 283 292 291
149 148 151 158 152 144 142 146 152 151 140 138 134 112 71 22 356 344 37 340 310 294 291 288 294 292 292 294 290 281 284 277 277 282 284 288 293 278 270 287 291 271 292
155 157 164 155 148 141 142 154 155 147 142 140 118 65 28 2 327 336 297 287 300 301 300 294 287 302 292 292 289 277 273 273 271 272 281 290 286 286 276 274 281 288 287
168 166 161 153 147 153 152 163 156 153 144 127 95 59 27 3 340 341 5 325 303 298 298 300 304 299 295 302 306 301 279 278 277 277 279 277 281 287 285 273 279 289 296
166 169 164 159 159 163 164 160 165 158 142 127 113 95 42 18 5 352 341 303 304 297 297 299 306 304 298 297 305 297 285 268 263 275 280 284 289 300 321 296 284 277 271
168 173 165 159 161 163 164 159 162 155 149 147 146 46 294 272 344 333 329 297 303 293 287 297 304 306 308 308 309 277 271 261 254 270 270 287 304 313 293 292 289 279 274
180 177 173 163 165 168 158 168 175 157 146 149 157 293 299 294 292 311 319 315 278 276 273 286 306 303 307 317 322 295 285 270 258 308 39 359 346 340 336 308 283 302 274
193 185 171 165 165 168 164 163 172 158 156 153 244 250 274 279 273 273 299 281 275 280 281 289 309 306 313 323 320 323 297 279 312 36 0 359 358 356 9 0 321 290 280
168 168 164 165 170 163 147 156 161 164 166 193 244 243 253 247 263 252 275 283 263 286 294 308 301 311 317 326 328 310 313 338 22 49 35 339 327 357 7 15 6 0 335
156 165 167 169 158 150 146 156 159 157 188 206 244 274 254 265 246 240 244 280 302 281 287 296 300 304 322 322 328 323 327 329 82 48 32 17 352 350 26 27 38 40 32
161 170 166 157 152 152 153 156 156 180 192 207 219 250 265 256 253 239 243 268 313 302 280 282 308 321 310 312 321 337 328 304 25 15 358 7 353 350 16 40 50 57 52
171 169 159 161 155 160 158 155 156 178 191 206 215 238 257 250 220 230 219 266 299 301 288 283 288 308 311 301 321 319 316 314 79 92 28 33 5 8 12 352 21 68 57
174 165 162 159 164 164 170 174 184 206 178 184 208 196 207 269 238 211 215 274 290 301 309 283 312 298 324 293 268 302 307 313 321 77 83 65 12 20 18 8 50 61 80
161 159 164 160 160 156 165 194 235 226 217 231 224 202 218 231 252 264 276 278 285 302 305 286 312 295 252 268 265 270 321 334 321 90 76 79 66 42 23 68 79 85 92
157 159 156 149 157 162 158 162 187 300 248 240 241 240 239 242 248 245 263 273 282 294 280 281 278 282 250 227 220 241 240 282 61 91 105 99 86 44 59 57 92 93 72
120 134 152 157 160 158 165 169 165 167 188 264 303 242 254 253 259 257 252 272 268 276 265 254 261 277 259 221 196 197 196 151 119 130 102 100 96 112 78 78 56 95 86
121 125 146 140 148 148 148 157 165 163 210 213 335 293 290 283 277 270 249 193 243 266 269 264 251 251 248 210 195 180 174 168 167 133 112 117 119 121 85 78 85 75 97
103 108 105 135 152 166 155 164 188 211 213 202 225 243 262 64 351 275 258 230 235 255 254 244 245 228 211 195 176 155 150 130 144 136 130 123 116 113 118 107 78 101 73
70 121 144 125 167 168 165 195 211 192 220 230 232 223 241 206 243 242 255 223 226 229 230 227 227 213 201 181 161 155 165 170 159 152 137 132 129 121 111 104 107 97 123
45 237 202 174 174 191 200 184 190 214 227 245 276 280 296 264 232 249 251 251 219 231 224 208 212 199 192 184 182 167 176 182 163 154 136 130 125 122 116 119 115 105 102
9 338 347 303 214 207 228 226 188 199 214 230 271 283 292 285 275 268 263 256 236 243 226 203 189 198 186 183 185 176 185 193 178 158 154 144 141 143 143 143 141 129 115
1 313 269 297 345 284 245 245 230 228 232 241 238 228 254 271 281 289 283 257 247 246 225 207 188 181 185 192 187 174 173 157 156 164 153 150 144 141 131 134 144 125 131
350 353 321 245 232 233 230 230 244 254 269 261 260 255 245 244 266 272 279 263 251 226 226 215 194 192 198 192 185 170 162 165 162 152 146 142 148 150 146 145 143 128 118
326 309 280 284 286 273 261 261 265 245 233 242 247 243 242 259 266 271 276 265 230 234 224 216 204 203 192 196 187 168 168 160 159 155 145 143 148 148 145 136 142 144 143